This is the latest recevied weather packets stored in our database for station/object CE4RG-12. If no packets are shown the sender has not sent any weather packets the latest 10 day(s).
| Time | Temp. | Humidity | Pressure | Rain* | Wind** | Luminosity | Snow |
|---|---|---|---|---|---|---|---|
| 1777821924 | 20° C | 44% | 959.9 hPa | - | - | - | - |
| 1777818924 | 19.44° C | 45% | 960 hPa | - | - | - | - |
| 1777817724 | 18.89° C | 45% | 960.1 hPa | - | - | - | - |
| 1777817124 | 18.89° C | 45% | 960 hPa | - | - | - | - |
| 1777811123 | 18.33° C | 46% | 959.8 hPa | - | - | - | - |
| 1777805722 | 18.89° C | 45% | 958.8 hPa | - | - | - | - |
| 1777802721 | 19.44° C | 45% | 959.7 hPa | - | - | - | - |
| 1777802121 | 19.44° C | 45% | 959 hPa | - | - | - | - |
| 1777800921 | 19.44° C | 45% | 958.8 hPa | - | - | - | - |
| 1777800321 | 19.44° C | 45% | 958.8 hPa | - | - | - | - |
| 1777799721 | 19.44° C | 45% | 958.8 hPa | - | - | - | - |
| 1777799121 | 19.44° C | 45% | 958.6 hPa | - | - | - | - |
| 1777798520 | 19.44° C | 45% | 958.5 hPa | - | - | - | - |
| 1777797320 | 20° C | 45% | 958.4 hPa | - | - | - | - |
| 1777796720 | 20° C | 44% | 958.4 hPa | - | - | - | - |
| 1777796120 | 20° C | 45% | 958.7 hPa | - | - | - | - |
| 1777795520 | 20° C | 45% | 958.7 hPa | - | - | - | - |
| 1777794920 | 20° C | 45% | 958.9 hPa | - | - | - | - |
| 1777794320 | 20° C | 45% | 959.1 hPa | - | - | - | - |
| 1777793720 | 20° C | 45% | 959.2 hPa | - | - | - | - |
| 1777793120 | 20° C | 45% | 959.2 hPa | - | - | - | - |
| 1777792520 | 20° C | 45% | 959.5 hPa | - | - | - | - |
| 1777791919 | 20° C | 45% | 959.4 hPa | - | - | - | - |
| 1777791324 | 20.56° C | 45% | 959.3 hPa | - | - | - | - |
| 1777790724 | 20.56° C | 44% | 959.2 hPa | - | - | - | - |
* Rain since midnight (hover to see other rain measurements)
** Current wind speed in m/s (hover to see current wind gust speed)